Regional Weather Roundup
Issued by NWS

Home | Current Version | Previous Version | Graphics & Text | Print | Product List | Glossary On
Versions: 1 2 3 4 5 6 7 8 9 10 11 12 13 14 15 16 17 18 19 20 21 22 23 24 25 26 27 28 29 30 31 32 33 34 35 36 37 38 39 40 41 42 43 44 45 46 47 48 49 50
568
ASUS43 KDMX 250108
RWRIA

WEATHER ROUNDUP FOR IOWA
NATIONAL WEATHER SERVICE DES MOINES IA
800 PM CDT SAT SEP 24 2016

NOTE: "FAIR" INDICATES FEW OR NO CLOUDS BELOW 12,000 FEET WITH NO
SIGNIFICANT WEATHER AND/OR OBSTRUCTIONS TO VISIBILITY.

* - THESE STATIONS ARE NOT NWS STATIONS...THUS NOT UNDER NWS
QUALITY CONTROL.  THEY ALSO DO NOT REPORT WEATHER SUCH
AS PRECIPITATION OR FOG.

IAZ001>003-012>014-020>022-031>034-043>046-250200-
   NORTHWEST IOWA

CITY           SKY/WX    TMP DP  RH WIND       PRES   REMARKS
CARROLL *      CLOUDY    68  66  94 SE5       29.93F
CHEROKEE *     MOCLDY    69  67  93 S6        29.92S
DENISON *      CLOUDY    70  68  94 S6        29.92R
LE MARS *      CLOUDY    72  70  94 SE8       29.92R
ORANGE CITY *  CLOUDY    72  70  94 S6        29.92S
SHELDON *      CLOUDY    72  68  88 S6        29.91R
SIOUX CITY     CLOUDY    74  72  93 SE8       29.91R
SPENCER        MOCLDY    69  66  90 SE7       29.93R
STORM LAKE *   CLOUDY    66  64  94 SE7       29.93F
$$

IAZ055>058-069>071-079>083-090>094-250200-
   SOUTHWEST IOWA

CITY           SKY/WX    TMP DP  RH WIND       PRES   REMARKS
ATLANTIC *     CLOUDY    72  68  88 SE7       29.91F
AUDUBON *      LGT RAIN  70  66  88 SE7       29.93F
CLARINDA *       N/A     70  70 100 MISG      29.96F
COUNCIL BLFS * CLOUDY    70  70 100 SE12      29.92S
CRESTON *      LGT RAIN  68  68 100 VRB7G14   29.97F
HARLAN  *      LGT RAIN  70  70 100 CALM      29.95R
LAMONI         CLOUDY    78  71  79 SE8       29.95F HX  80
RED OAK *      CLOUDY    70  68  94 S7        29.92F
SHENANDOAH *   DRIZZLE   70  68  94 S7        29.94F
$$

IAZ047>049-059>061-072>074-084-250200-
   CENTRAL IOWA

CITY           SKY/WX    TMP DP  RH WIND       PRES   REMARKS
AMES           LGT RAIN  69  69 100 NW13      29.98R
ANKENY *         N/A    N/A N/A N/A MISG        N/A
BOONE *        CLOUDY    68  68 100 E8        29.98F
CHARITON *       N/A     77  68  73 SE7       29.96F
DES MOINES     CLOUDY    82  68  62 SE10      29.95S HX  85
GRINNELL*      CLEAR     76  65  70 SE7       29.99F
KNOXVILLE *    CLOUDY    79  66  65 SE7       29.95F HX  81
MARSHALLTOWN   CLOUDY    75  69  81 E9        29.97F
NEWTON *       CLOUDY    75  66  73 SE7       29.97S
PELLA *        CLOUDY    77  65  67 SE3       29.98S
PERRY *        HVY RAIN  70  68  94 SW9       29.97S
$$

IAZ004>006-015-016-023>025-035-036-250200-
   NORTH CENTRAL IOWA

CITY           SKY/WX    TMP DP  RH WIND       PRES   REMARKS
ALGONA *       LGT RAIN  70  66  88 S10G17    29.96R
CLARION *      CLOUDY    68  68 100 S10       30.01R
ESTHERVILLE    MOCLDY    69  69 100 S5        29.94R
FORT DODGE *   MOCLDY    66  63  88 S5        29.96F
MASON CITY     CLOUDY    74  67  78 SE13      30.00S
FOREST CITY *  CLOUDY    73  66  78 S8        29.99R
WEBSTER CITY * HVY RAIN  66  66 100 E7        29.97F
IOWA FALLS *   MOCLDY    76  68  75 CALM      30.00S
$$

IAZ007>011-017>019-026>030-037>042-050>054-066-250200-
   NORTHEAST IOWA

CITY           SKY/WX    TMP DP  RH WIND       PRES   REMARKS
CEDAR RAPIDS   CLEAR     72  70  93 E12       30.02R
CHARLES CITY * PTCLDY    70  68  94 E9G20     30.02F
CLINTON *      CLEAR     70  67  90 E6        30.06S
DECORAH *      CLOUDY    68  66  94 SE6       30.07R
DUBUQUE        CLEAR     66  64  93 CALM      30.08R FOG
MONTICELLO *   CLEAR     68  66  94 E6        30.04F FOG
OELWEIN *      CLEAR     68  66  94 E10G16    30.04F
WATERLOO       CLOUDY    72  66  81 E13       29.99S
$$

IAZ064-065-067-068-078-250200-
   EAST CENTRAL IOWA

CITY           SKY/WX    TMP DP  RH WIND       PRES   REMARKS
DAVENPORT      CLEAR     72  67  84 E10       30.05R
IOWA CITY      CLEAR     76  68  76 E8        30.03R
MT. PLEASANT * CLEAR     78  67  69 SE7       30.01S HX  80
MUSCATINE *    CLEAR     77  68  73 E7        30.02S
QUAD CITIES    CLEAR     73  67  81 E8        30.04R
$$

IAZ062-063-075>077-085>089-095>099-250200-
   SOUTHEAST IOWA

CITY           SKY/WX    TMP DP  RH WIND       PRES   REMARKS
BURLINGTON     CLEAR     77  66  68 SE5       30.02R
FAIRFIELD *    CLEAR     73  61  64 SE3       30.00S
FORT MADISON *   N/A     79  66  65 SE5       30.03R HX  81
KEOKUK *       CLEAR     77  64  65 SE6       30.00S
OSKALOOSA *      N/A     76  64  65 SE7       29.98F
CENTERVILLE *    N/A     75  68  78 CALM      30.00S
OTTUMWA        CLEAR     74  65  73 SE9       29.98F
WASHINGTON *     N/A    N/A N/A N/A MISG        N/A
$$

ABBREVIATIONS USED IN REMARKS
   TC - TEMPERATURES IN CELSIUS
  WCI - WIND CHILL INDEX
   HX - HEAT INDEX
  VSB - VISIBILITY
$$





USA.gov is the U.S. government's official web portal to all federal, state and local government web resources and services.